Joplin, MO

9:47 PM CST on February 18, 2018 (GMT -0600)
Joplin Regional

Weather History for KJLN - August, 2012

Change the Weather History Date:

Tuesday, August 14, 2012

  Actual Average Record
Temperature  
Mean Temperature 67 °F 80 °F  
Max Temperature 77 °F 92 °F 103 °F (2007)
Min Temperature 57 °F 69 °F 54 °F (2004)
Degree Days  
Heating Degree Days 0 0  
Month to date heating degree days 0 0  
Since 1 June heating degree days 9 5  
Since 1 July heating degree days 0 0  
Cooling Degree Days 2 15  
Month to date cooling degree days 243 221  
Year to date cooling degree days 1666 1192  
Since 1 June cooling degree days 1320 1012  
Growing Degree Days 18 (Base 50)    
Moisture  
Dew Point 59 °F    
Average Humidity 70    
Maximum Humidity 93    
Minimum Humidity 46    
Precipitation  
Precipitation T in 0.10 in 4.91 in (1980)
Month to date precipitation T 1.42  
Year to date precipitation 20.69 29.04  
Sea Level Pressure  
Sea Level Pressure 30.00 in    
Wind  
Wind Speed 5 mph (NE)    
Max Wind Speed 15 mph    
Max Gust Speed 20 mph    
Visibility 10 miles    
Events Rain    
T = Trace of Precipitation, MM = Missing Value Source: NWS Daily Summary

Daily Weather History Graph

Daily Weather History Graph

Search for Another Location

Airport or City:

Trip Planner

Search our weather history database for the weather conditions in past years. The results will help you decide how hot, cold, wet, or windy it might be!

Date:

Astronomy

Aug. 14, 2012 Rise Set
Actual Time 6:34 AM CDT 8:10 PM CDT
Civil Twilight 6:06 AM CDT 8:37 PM CDT
Nautical Twilight 5:33 AM CDT 9:11 PM CDT
Astronomical Twilight 4:57 AM CDT 9:46 PM CDT
Moon 3:35 AM CDT (8/14) 6:03 PM CDT (8/14)
Length of Visible Light 14h 31m
Length of Day
13h 36m
Waning Crescent, 9% of the Moon is Illuminated
Aug 14
Waning Crescent
Aug 17
New
Aug 24
First Quarter
Aug 31
Full
Sep 8
Last Quarter

Hourly Weather History & Observations

Time (CDT) Temp. Dew Point Humidity Pressure Visibility Wind Dir Wind Speed Gust Speed Precip Events Conditions
12:53 AM 61.0 °F 57.9 °F 90% 30.03 in 10.0 mi NNE 4.6 mph - N/A   Clear
1:53 AM 62.1 °F 57.9 °F 86% 30.02 in 10.0 mi Calm Calm - N/A   Clear
2:53 AM 62.1 °F 57.9 °F 86% 30.00 in 10.0 mi ENE 4.6 mph - N/A   Clear
3:53 AM 62.1 °F 57.9 °F 86% 30.00 in 10.0 mi Calm Calm - N/A   Clear
4:53 AM 60.8 °F 57.2 °F 88% 30.05 in 10.0 mi NNW 3.5 mph - N/A   Clear
5:53 AM 60.1 °F 57.9 °F 93% 30.03 in 10.0 mi Calm Calm - N/A   Clear
7:53 AM 62.1 °F 59.0 °F 90% 30.04 in 10.0 mi NE 4.6 mph - N/A   Clear
8:53 AM 64.9 °F 59.0 °F 81% 30.04 in 10.0 mi North 5.8 mph - N/A   Clear
9:53 AM 66.9 °F 59.0 °F 76% 30.07 in 10.0 mi NE 5.8 mph - 0.00 in   Mostly Cloudy
10:53 AM 69.1 °F 59.0 °F 70% 30.06 in 10.0 mi Calm Calm - N/A   Clear
11:53 AM 73.9 °F 55.9 °F 53% 30.03 in 10.0 mi East 12.7 mph 18.4 mph N/A   Clear
12:53 PM 75.9 °F 54.0 °F 46% 30.03 in 10.0 mi East 5.8 mph - N/A   Partly Cloudy
1:53 PM 75.9 °F 55.0 °F 48% 30.01 in 10.0 mi NE 6.9 mph - N/A   Mostly Cloudy
2:53 PM 75.0 °F 55.9 °F 51% 30.01 in 10.0 mi Variable 5.8 mph - N/A   Mostly Cloudy
3:53 PM 69.1 °F 60.1 °F 73% 30.03 in 10.0 mi North 6.9 mph - 0.00 in Rain Light Rain
4:53 PM 66.0 °F 63.0 °F 90% 30.01 in 9.0 mi North 8.1 mph - 0.00 in Rain Light Rain
5:53 PM 66.0 °F 64.0 °F 93% 30.01 in 9.0 mi North 6.9 mph - 0.00 in   Overcast
6:53 PM 64.9 °F 63.0 °F 93% 29.98 in 10.0 mi ENE 8.1 mph - 0.00 in   Overcast
7:53 PM 66.0 °F 62.1 °F 87% 29.94 in 10.0 mi ENE 9.2 mph - N/A   Mostly Cloudy
8:53 PM 66.0 °F 62.1 °F 87% 29.94 in 10.0 mi East 8.1 mph - N/A   Overcast
9:53 PM 66.0 °F 62.1 °F 87% 29.93 in 10.0 mi East 8.1 mph - N/A   Overcast
10:53 PM 64.0 °F 61.0 °F 90% 29.93 in 10.0 mi ESE 4.6 mph - N/A   Scattered Clouds
11:53 PM 64.9 °F 62.1 °F 90% 29.92 in 10.0 mi ESE 4.6 mph - N/A   Overcast